Tracking 28126 objects as of 1-Oct-2023
HD Live streaming from Space Station
objects crossing your sky now

THORAD AGENA D DEB

Track THORAD AGENA D DEB now!
10-day predictions


NORAD ID: 4757
Int'l Code: 1970-025DF
Perigee: 1,022.7 km
Apogee: 1,042.8 km
Inclination: 99.5 °
Period: 105.7 minutes
Semi major axis: 7403 km
RCS: 0.042 m2 (small)
Launch date: April 8, 1970
Source: United States (US)
Launch site: AIR FORCE WESTERN TEST RANGE (AFWTR)

Note: This is SATELLITE DEBRIS
Your satellite tracking list
Your tracking list is empty




NASA's NSSDC Master Catalog

Two Line Element Set (TLE):
1  4757U 70025DF  23273.68109070  .00000590  00000-0  81157-3 0  9994
2  4757  99.4920 158.7056 0013625  95.4927 264.7770 13.62778104646236
Source of the keplerian elements: AFSPC